When you browse on this site, cookies collect data to enhance your experience and personalize the content and advertising you see.
Visit our Privacy Policy to learn more. By continuing to use the site, you agree to this use of cookies and data.
  • In Deutschland
  • Länderverzeichnis
  • Für 7 Tage
  • Wassertemperatur
  • Satellitenkarten
  • Wetterkarte
  • Widgets
  • user-avatar
    Anmelden

    Stündliche Wetter Polotsk

    Heute, 26 März, Dienstag

    Zeit Temperatur Niederschläge Wind Luftdruck Luftfeuchtigkeit
    00:00 +1°C° 0 mm 2 m/S 740 mmHg 82%
    01:00 -1°C° 0 mm 3 m/S 740 mmHg 85%
    02:00 -1°C° 0 mm 3 m/S 740 mmHg 88%
    03:00 -1°C° 0 mm 3 m/S 740 mmHg 87%
    04:00 -3°C° 0 mm 4 m/S 741 mmHg 85%
    05:00 -4°C° 0 mm 4 m/S 741 mmHg 84%
    06:00 -3°C° 0 mm 4 m/S 741 mmHg 81%
    07:00 -3°C° 0 mm 4 m/S 741 mmHg 77%
    08:00 -4°C° 0 mm 5 m/S 741 mmHg 73%
    09:00 -1°C° 0 mm 5 m/S 742 mmHg 66%
    10:00 0°C° 0 mm 5 m/S 742 mmHg 59%
    11:00 +1°C° 0 mm 5 m/S 742 mmHg 53%
    12:00 +3°C° 0 mm 4 m/S 742 mmHg 49%
    13:00 +3°C° 0 mm 4 m/S 742 mmHg 46%
    14:00 +4°C° 0 mm 4 m/S 742 mmHg 42%
    15:00 +3°C° 0.3 mm 4 m/S 742 mmHg 48%
    16:00 +3°C° 0.3 mm 3 m/S 742 mmHg 53%
    17:00 +2°C° 0.3 mm 3 m/S 742 mmHg 58%
    18:00 +2°C° 0.3 mm 3 m/S 742 mmHg 64%
    19:00 +2°C° 0.3 mm 2 m/S 742 mmHg 71%
    20:00 +2°C° 0.3 mm 1 m/S 743 mmHg 77%
    21:00 +2°C° 0.3 mm 1 m/S 743 mmHg 82%
    22:00 +2°C° 0.3 mm 1 m/S 744 mmHg 87%
    23:00 +1°C° 0.3 mm 1 m/S 744 mmHg 91%

    Morgen, 27 März, Mittwoch

    Zeit Temperatur Niederschläge Wind Luftdruck Luftfeuchtigkeit
    00:00 -1°C° 0.1 mm 2 m/S 745 mmHg 90%
    01:00 -1°C° 0.1 mm 2 m/S 745 mmHg 89%
    02:00 -2°C° 0.1 mm 2 m/S 746 mmHg 88%
    03:00 -3°C° 0 mm 2 m/S 746 mmHg 86%
    04:00 -4°C° 0 mm 2 m/S 746 mmHg 83%
    05:00 -6°C° 0 mm 3 m/S 747 mmHg 81%
    06:00 -5°C° 0 mm 3 m/S 747 mmHg 80%
    07:00 -4°C° 0 mm 3 m/S 748 mmHg 78%
    08:00 -4°C° 0 mm 4 m/S 749 mmHg 77%
    09:00 -3°C° 0 mm 4 m/S 749 mmHg 74%
    10:00 -2°C° 0 mm 4 m/S 750 mmHg 70%
    11:00 -1°C° 0 mm 4 m/S 750 mmHg 67%
    12:00 -1°C° 0 mm 4 m/S 750 mmHg 63%
    13:00 0°C° 0 mm 4 m/S 751 mmHg 59%
    14:00 0°C° 0 mm 4 m/S 751 mmHg 56%
    15:00 +1°C° 0 mm 3 m/S 751 mmHg 55%
    16:00 +1°C° 0 mm 3 m/S 751 mmHg 54%
    17:00 +1°C° 0 mm 3 m/S 751 mmHg 53%
    18:00 0°C° 0 mm 3 m/S 752 mmHg 59%
    19:00 -1°C° 0 mm 2 m/S 752 mmHg 64%
    20:00 0°C° 0 mm 1 m/S 753 mmHg 69%
    21:00 -1°C° 0 mm 1 m/S 753 mmHg 70%
    22:00 -1°C° 0 mm 1 m/S 753 mmHg 70%
    23:00 -1°C° 0 mm 1 m/S 753 mmHg 70%

    übermorgen, 28 März, Donnerstag

    Zeit Temperatur Niederschläge Wind Luftdruck Luftfeuchtigkeit
    00:00 -1°C° 0 mm 1 m/S 754 mmHg 71%
    01:00 -1°C° 0 mm 1 m/S 754 mmHg 72%
    02:00 -1°C° 0 mm 1 m/S 754 mmHg 73%
    03:00 -3°C° 0 mm 2 m/S 754 mmHg 74%
    04:00 -3°C° 0 mm 2 m/S 754 mmHg 76%
    05:00 -3°C° 0 mm 2 m/S 754 mmHg 77%
    06:00 -2°C° 0 mm 2 m/S 755 mmHg 73%
    07:00 -1°C° 0 mm 2 m/S 755 mmHg 70%
    08:00 +1°C° 0 mm 2 m/S 755 mmHg 67%
    09:00 +1°C° 0 mm 3 m/S 755 mmHg 66%
    10:00 +2°C° 0 mm 3 m/S 755 mmHg 65%
    11:00 +3°C° 0 mm 4 m/S 755 mmHg 64%
    12:00 +4°C° 0 mm 4 m/S 755 mmHg 63%
    13:00 +5°C° 0 mm 4 m/S 755 mmHg 61%
    14:00 +5°C° 0 mm 5 m/S 755 mmHg 60%
    15:00 +5°C° 0 mm 4 m/S 755 mmHg 62%
    16:00 +5°C° 0 mm 4 m/S 754 mmHg 64%
    17:00 +5°C° 0 mm 3 m/S 754 mmHg 66%
    18:00 +3°C° 0 mm 3 m/S 754 mmHg 72%
    19:00 +2°C° 0 mm 3 m/S 754 mmHg 78%
    20:00 +1°C° 0 mm 3 m/S 754 mmHg 84%
    21:00 +1°C° 0 mm 3 m/S 754 mmHg 83%
    22:00 +1°C° 0 mm 3 m/S 754 mmHg 83%
    23:00 0°C° 0 mm 4 m/S 753 mmHg 83%

    29 März, Freitag

    Zeit Temperatur Niederschläge Wind Luftdruck Luftfeuchtigkeit
    00:00 0°C° 0 mm 4 m/S 753 mmHg 82%
    01:00 +1°C° 0 mm 4 m/S 753 mmHg 81%
    02:00 +1°C° 0 mm 4 m/S 752 mmHg 80%
    03:00 +1°C° 0 mm 4 m/S 752 mmHg 83%
    04:00 0°C° 0 mm 4 m/S 752 mmHg 86%
    05:00 0°C° 0 mm 4 m/S 752 mmHg 89%
    06:00 +1°C° 0 mm 4 m/S 752 mmHg 89%
    07:00 +1°C° 0 mm 4 m/S 752 mmHg 88%
    08:00 +3°C° 0 mm 4 m/S 752 mmHg 88%
    09:00 +4°C° 0 mm 4 m/S 752 mmHg 82%
    10:00 +6°C° 0 mm 4 m/S 752 mmHg 77%
    11:00 +8°C° 0 mm 4 m/S 752 mmHg 71%
    12:00 +9°C° 0 mm 5 m/S 752 mmHg 67%
    13:00 +10°C° 0 mm 5 m/S 752 mmHg 62%
    14:00 +12°C° 0 mm 5 m/S 751 mmHg 58%
    15:00 +12°C° 0 mm 5 m/S 751 mmHg 59%
    16:00 +12°C° 0 mm 4 m/S 750 mmHg 60%
    17:00 +12°C° 0 mm 4 m/S 750 mmHg 60%
    18:00 +11°C° 0 mm 4 m/S 750 mmHg 67%
    19:00 +10°C° 0 mm 4 m/S 750 mmHg 74%
    20:00 +7°C° 0 mm 4 m/S 750 mmHg 81%
    21:00 +7°C° 0 mm 4 m/S 750 mmHg 83%
    22:00 +7°C° 0 mm 4 m/S 749 mmHg 85%
    23:00 +6°C° 0 mm 5 m/S 749 mmHg 88%

    30 März, Samstag

    Zeit Temperatur Niederschläge Wind Luftdruck Luftfeuchtigkeit
    00:00 +6°C° 0 mm 5 m/S 749 mmHg 88%
    01:00 +5°C° 0 mm 5 m/S 748 mmHg 88%
    02:00 +5°C° 0 mm 5 m/S 748 mmHg 88%
    03:00 +3°C° 0 mm 5 m/S 748 mmHg 89%
    04:00 +3°C° 0 mm 5 m/S 747 mmHg 91%
    05:00 +3°C° 0 mm 5 m/S 747 mmHg 92%
    06:00 +3°C° 0 mm 6 m/S 747 mmHg 89%
    07:00 +3°C° 0 mm 6 m/S 747 mmHg 85%
    08:00 +4°C° 0 mm 6 m/S 747 mmHg 82%
    09:00 +5°C° 0 mm 6 m/S 747 mmHg 76%
    10:00 +7°C° 0 mm 6 m/S 746 mmHg 70%
    11:00 +9°C° 0 mm 6 m/S 746 mmHg 64%
    12:00 +9°C° 0 mm 7 m/S 746 mmHg 63%
    13:00 +10°C° 0 mm 7 m/S 746 mmHg 61%
    14:00 +10°C° 0 mm 7 m/S 746 mmHg 59%
    15:00 +10°C° 0 mm 6 m/S 746 mmHg 62%
    16:00 +9°C° 0 mm 5 m/S 745 mmHg 65%
    17:00 +10°C° 0 mm 4 m/S 745 mmHg 67%
    18:00 +8°C° 0 mm 4 m/S 745 mmHg 69%
    19:00 +8°C° 0 mm 4 m/S 745 mmHg 71%
    20:00 +7°C° 0 mm 4 m/S 745 mmHg 73%
    21:00 +7°C° 0 mm 4 m/S 745 mmHg 75%
    22:00 +7°C° 0 mm 5 m/S 744 mmHg 77%
    23:00 +6°C° 0 mm 5 m/S 744 mmHg 78%

    31 März, Sonntag

    Zeit Temperatur Niederschläge Wind Luftdruck Luftfeuchtigkeit
    00:00 +6°C° 0 mm 5 m/S 743 mmHg 79%
    01:00 +6°C° 0 mm 5 m/S 743 mmHg 80%
    02:00 +5°C° 0 mm 5 m/S 742 mmHg 81%
    03:00 +5°C° 0 mm 5 m/S 742 mmHg 79%
    04:00 +4°C° 0 mm 6 m/S 742 mmHg 78%
    05:00 +3°C° 0 mm 6 m/S 741 mmHg 77%
    06:00 +3°C° 0.1 mm 6 m/S 742 mmHg 72%
    07:00 +3°C° 0.1 mm 7 m/S 742 mmHg 66%
    08:00 +3°C° 0.1 mm 7 m/S 742 mmHg 61%
    09:00 +3°C° 0.1 mm 7 m/S 743 mmHg 58%
    10:00 +3°C° 0.1 mm 7 m/S 743 mmHg 56%
    11:00 +3°C° 0.1 mm 7 m/S 744 mmHg 53%
    12:00 +4°C° 0 mm 7 m/S 744 mmHg 47%
    13:00 +4°C° 0 mm 7 m/S 745 mmHg 41%
    14:00 +4°C° 0 mm 7 m/S 745 mmHg 35%
    15:00 +3°C° 0 mm 6 m/S 745 mmHg 38%
    16:00 +3°C° 0 mm 6 m/S 746 mmHg 40%
    17:00 +3°C° 0 mm 6 m/S 746 mmHg 43%
    18:00 +2°C° 0 mm 5 m/S 746 mmHg 47%
    19:00 +1°C° 0 mm 5 m/S 747 mmHg 51%
    20:00 0°C° 0 mm 4 m/S 747 mmHg 55%
    21:00 -1°C° 0 mm 4 m/S 748 mmHg 58%
    22:00 -1°C° 0 mm 4 m/S 748 mmHg 61%
    23:00 -2°C° 0 mm 5 m/S 749 mmHg 64%
    Mehr zeigen